User: anonymous   Login
Location: Unspecified
(0.0000°N, 0.0000°E)
Time: 21:32:03
(UTC+00:00)
Language:

AEHF 1 (USA 214) - Orbit

View from above orbital plane
View from above orbital plane
View from above satellite
View from above satellite

Ground track
Ground track

The orbit is defined by the following mean orbital elements,

1 36868U          26144.94803058 +.00000000 +00000-0 +00000-0 0 00008
2 36868   8.1640  68.3577 0004233 343.3717 202.1238  1.00277383    07
Epoch (UTC): 24 May 2026 22:45:09
Eccentricity: 0.0004233
inclination: 8.1640°
perigee height: 35767 km
apogee height: 35803 km
right ascension of ascending node: 68.3577°
argument of perigee: 343.3717°
revolutions per day: 1.00277383
mean anomaly at epoch: 202.1238°

The dashed part of the orbit path shows where the satellite is in the earth's shadow,  

DLR